TimeCST,TemperatureF,Dew PointF,Humidity,Sea Level PressureIn,VisibilityMPH,Wind Direction,Wind SpeedMPH,Gust SpeedMPH,PrecipitationIn,Events,Conditions,WindDirDegrees,DateUTC
12:52 AM,43.0,28.0,56,29.72,-9999.0,SE,6.9,-,N/A,,Unknown,140,2013-02-18 06:52:00
1:52 AM,44.1,28.9,55,29.68,-9999.0,SSE,6.9,-,N/A,,Unknown,150,2013-02-18 07:52:00
2:52 AM,46.9,30.0,52,29.65,-9999.0,SSE,9.2,-,N/A,,Unknown,160,2013-02-18 08:52:00
3:52 AM,46.9,30.0,52,29.62,-9999.0,SSE,9.2,-,N/A,,Unknown,150,2013-02-18 09:52:00
4:52 AM,46.0,30.0,54,29.60,-9999.0,SSE,6.9,-,N/A,,Unknown,160,2013-02-18 10:52:00
5:52 AM,48.0,30.9,52,29.61,-9999.0,South,4.6,-,N/A,,Unknown,170,2013-02-18 11:52:00
6:52 AM,46.9,32.0,56,29.60,-9999.0,South,8.1,-,N/A,,Unknown,170,2013-02-18 12:52:00
7:52 AM,48.0,34.0,58,29.61,-9999.0,South,6.9,-,N/A,,Unknown,170,2013-02-18 13:52:00
8:52 AM,51.1,37.0,59,29.60,-9999.0,South,8.1,-,N/A,,Unknown,180,2013-02-18 14:52:00
9:52 AM,55.0,39.9,57,29.59,-9999.0,South,16.1,26.5,N/A,,Unknown,190,2013-02-18 15:52:00
10:52 AM,55.0,42.1,62,29.58,-9999.0,South,11.5,-,N/A,,Unknown,190,2013-02-18 16:52:00
11:52 AM,51.1,46.9,86,29.60,-9999.0,WNW,11.5,19.6,0.05,,Unknown,290,2013-02-18 17:52:00
12:52 PM,41.0,37.0,86,29.64,-9999.0,NW,10.4,20.7,0.06,,Unknown,320,2013-02-18 18:52:00
1:52 PM,41.0,36.0,82,29.63,-9999.0,NNW,10.4,19.6,0.03,,Unknown,330,2013-02-18 19:52:00
2:52 PM,39.9,35.1,83,29.66,-9999.0,NNW,13.8,25.3,0.01,,Unknown,330,2013-02-18 20:52:00
3:52 PM,37.0,30.0,76,29.73,-9999.0,NW,20.7,34.5,N/A,,Unknown,320,2013-02-18 21:52:00
4:52 PM,34.0,26.1,73,29.80,-9999.0,NW,15.0,21.9,N/A,,Unknown,320,2013-02-18 22:52:00
5:52 PM,33.1,23.0,66,29.85,-9999.0,NW,16.1,26.5,N/A,,Unknown,310,2013-02-18 23:52:00
6:52 PM,32.0,19.9,61,29.91,-9999.0,NW,12.7,20.7,N/A,,Unknown,320,2013-02-19 00:52:00
7:52 PM,30.0,18.0,61,29.94,-9999.0,NW,12.7,21.9,N/A,,Unknown,310,2013-02-19 01:52:00
8:52 PM,28.9,16.0,58,29.98,-9999.0,NW,12.7,26.5,N/A,,Unknown,320,2013-02-19 02:52:00
9:52 PM,27.0,17.1,66,30.00,-9999.0,NW,6.9,-,N/A,,Unknown,310,2013-02-19 03:52:00
10:52 PM,26.1,15.1,63,30.02,-9999.0,NW,12.7,20.7,N/A,,Unknown,310,2013-02-19 04:52:00
11:52 PM,25.0,14.0,63,30.05,-9999.0,WNW,13.8,24.2,N/A,,Unknown,300,2013-02-19 05:52:00